Zurück zum Katalog

FENGYUN 1C DEB

AktivSSO
NORAD 32414·DEBRIS·🇨🇳 China

Gestartet May 10, 1999 von Taiyuan Satellite Launch Center

Loading…

Nächste Überflüge (nächste 24 Stunden)

TLE

AktuellSource: Space-Track

Epoche: Sep 13, 2026, 11:30 UTC

1 32414U 99025DAA 26256.47942022  .00001444  00000-0  69713-3 0  9992
2 32414  98.8406 331.6899 0043898 289.7366  69.9078 14.19701231976294

Verfolge FENGYUN 1C DEB in Echtzeit mit AllMySat

Download on the App Store